Dustobod

Uzbekistan     40˚51′27″N   68˚55′46″E
temp.,
°C
wind,
m/s
gust,
m/s
humid.,
%
clouds,
%
prec.,
mm/h
press.,
hPa
HPBL,
m
2 december, wed
wed223:00+7˚nne124591 0.0 102822
02:00+7˚wnw0144100 0.0 102722
05:00+5˚wnw1247100 0.0 102822
08:00+5˚nw1148100 0.0 102822
11:00+9˚wnw113893 0.0 1027289
14:00+11˚nw0034100 0.0 1026475
17:00+9˚n1243100 0.0 102622
20:00+8˚ene1154100 0.0 102722
3 december, thu
thu323:00+8˚ese116299 0.0 102622
02:00+7˚nw116547 0.0 102622
05:00+7˚wnw226370 0.0 102744
08:00+5˚wnw126589 0.0 102722
11:00+8˚wsw225794 0.0 1027385
14:00+8˚wnw2259100 0.0 1026436
17:00+7˚nw2363100 0.0 102686
20:00+6˚nw2358100 0.0 1026145
4 december, fri
fri423:00+5˚nw3555100 0.0 1026261
02:00+3˚wnw3456100 0.0 1027247
05:00+2˚wnw2353100 0.0 1027239
08:00+1˚nw2355100 0.0 1028216
11:00+3˚wnw224873 0.0 1029420
14:00+5˚wnw32430 0.0 1028716
17:00+3˚nw35470 0.0 1030160
20:00+1˚nnw244627 0.0 1031121
5 december, sat
sat523:00−1˚n234921 0.0 103162
02:00−2˚n22510 0.0 103132
05:00−2˚n22510 0.0 103125
08:00−2˚n22490 0.0 103232
11:00+2˚nnw22370 0.0 1030349
14:00+5˚nnw223631 0.0 1028605
17:00+3˚nnw344465 0.0 102973
20:00+1˚nnw234698 0.0 103068
6 december, sun
sun623:00n224992 0.0 103027
02:00−1˚nnw125322 0.0 103021
05:00−1˚nnw125734 0.0 103021
08:00−2˚wnw115841 0.0 103121
11:00+3˚wnw114441 0.0 1029282
14:00+6˚nw22411 0.0 1028623
17:00+4˚nnw33500 0.0 102741
20:00+2˚nnw335898 0.0 102870